Weather History for Denali Park, AK

Change the Weather History Date:

Thursday, May 15, 2014

  Actual Average Record
Temperature  
Mean Temperature 48 °F -  
Max Temperature 66 °F 52 °F 67 °F (1973)
Min Temperature 30 °F 28 °F 17 °F (2013)
Degree Days  
Heating Degree Days 17    
Moisture  
Dew Point 24 °F    
Average Humidity 41    
Maximum Humidity 80    
Minimum Humidity 19    
Precipitation  
Precipitation 0.00 in - - ()
Sea Level Pressure  
Sea Level Pressure 30.35 in    
Wind  
Wind Speed 2 mph (North)    
Max Wind Speed 9 mph    
Max Gust Speed -    
Visibility 10 miles    
Events      
Averages and records for this station are not official NWS values.
T = Trace of Precipitation, MM = Missing Value Source: NWS Daily Summary

Daily Weather History Graph

Daily Weather History Graph

Search for Another Location

Airport:

Trip Planner

Search our weather history database for the weather conditions in past years. The results will help you decide how hot, cold, wet, or windy it might be!

Date:

Astronomy

May. 15, 2014 Rise Set
Actual Time 4:44 AM AKDT 11:01 PM AKDT
Civil Twilight 3:09 AM AKDT 12:40 AM AKDT
Nautical Twilight Sun does not rise Sun does not rise
Astronomical Twilight Sun does not rise Sun does not rise
Moon No Moon Rise 5:48 AM AKDT (5/15)
Length of Visible Light 21h 31m
Length of Day
18h 17m
Full, 99% of the Moon is Illuminated
May 15
Full
May 21
Last Quarter
May 28
New
Jun 5
First Quarter
Jun 12
Full

Hourly Weather History & Observations

Time (AKDT) Temp. Windchill Dew Point Humidity Pressure Visibility Wind Dir Wind Speed Gust Speed Precip Events Conditions
12:16 AM 41.0 °F 39.0 °F 23.0 °F 49% 30.41 in 10.0 mi WSW 3.5 mph - N/A   Clear
12:36 AM 41.0 °F - 23.0 °F 49% 30.41 in 10.0 mi Calm Calm - N/A   Clear
12:56 AM 39.2 °F 35.9 °F 23.0 °F 52% 30.42 in 10.0 mi WSW 4.6 mph - N/A   Clear
1:16 AM 39.2 °F - 21.2 °F 49% 30.42 in 10.0 mi Calm Calm - N/A   Clear
1:36 AM 37.4 °F 34.9 °F 23.0 °F 56% 30.42 in 10.0 mi SW 3.5 mph - N/A   Clear
1:56 AM 37.4 °F 32.1 °F 23.0 °F 56% 30.42 in 10.0 mi SSW 6.9 mph - N/A   Clear
2:16 AM 35.6 °F - 23.0 °F 60% 30.43 in 10.0 mi Calm Calm - N/A   Clear
2:36 AM 35.6 °F - 23.0 °F 60% 30.43 in 10.0 mi Calm Calm - N/A   Clear
2:56 AM 33.8 °F - 23.0 °F 65% 30.43 in 10.0 mi Calm Calm - N/A   Clear
3:16 AM 33.8 °F - 21.2 °F 60% 30.43 in 10.0 mi Calm Calm - N/A   Clear
3:36 AM 33.8 °F - 21.2 °F 60% 30.43 in 10.0 mi Calm Calm - N/A   Clear
3:56 AM 32.0 °F - 21.2 °F 64% 30.42 in 10.0 mi Calm Calm - N/A   Clear
4:16 AM 30.2 °F - 24.8 °F 80% 30.43 in 10.0 mi Calm Calm - N/A   Clear
4:36 AM 32.0 °F - 23.0 °F 69% 30.43 in 10.0 mi Calm Calm - N/A   Clear
4:56 AM 30.2 °F - 23.0 °F 75% 30.43 in 10.0 mi Calm Calm - N/A   Clear
5:16 AM 30.2 °F - 24.8 °F 80% 30.43 in 10.0 mi Calm Calm - N/A   Clear
5:36 AM 30.2 °F - 24.8 °F 80% 30.43 in 10.0 mi Calm Calm - N/A   Clear
5:56 AM 30.2 °F - 24.8 °F 80% 30.43 in 10.0 mi Calm Calm - N/A   Clear
6:16 AM 30.2 °F - 24.8 °F 80% 30.43 in 10.0 mi Calm Calm - N/A   Clear
6:36 AM 30.2 °F - 24.8 °F 80% 30.43 in 10.0 mi Calm Calm - N/A   Clear
6:56 AM 32.0 °F - 24.8 °F 75% 30.43 in 10.0 mi Calm Calm - N/A   Clear
7:16 AM 33.8 °F - 24.8 °F 70% 30.43 in 10.0 mi Calm Calm - N/A   Clear
7:36 AM 35.6 °F - 24.8 °F 65% 30.43 in 10.0 mi Calm Calm - N/A   Clear
7:56 AM 35.6 °F - 24.8 °F 65% 30.43 in 10.0 mi Calm Calm - N/A   Clear
8:16 AM 37.4 °F - 26.6 °F 65% 30.42 in 10.0 mi Calm Calm - N/A   Clear
8:36 AM 39.2 °F - 26.6 °F 61% 30.42 in 10.0 mi Calm Calm - N/A   Clear
8:56 AM 42.8 °F - 26.6 °F 53% 30.42 in 10.0 mi Calm Calm - N/A   Clear
9:16 AM 46.4 °F - 24.8 °F 43% 30.41 in 10.0 mi Calm Calm - N/A   Clear
9:36 AM 48.2 °F - 24.8 °F 40% 30.40 in 10.0 mi Calm Calm - N/A   Clear
9:56 AM 51.8 °F - 24.8 °F 35% 30.39 in 10.0 mi Calm Calm - N/A   Clear
10:16 AM 53.6 °F - 24.8 °F 33% 30.39 in 10.0 mi Calm Calm - N/A   Clear
11:16 AM 57.2 °F - 21.2 °F 25% 30.38 in 10.0 mi Calm Calm - N/A   Clear
11:36 AM 60.8 °F - 21.2 °F 22% 30.37 in 10.0 mi Calm Calm - N/A   Clear
11:56 AM 60.8 °F - 21.2 °F 22% 30.36 in 10.0 mi Calm Calm - N/A   Clear
12:16 PM 62.6 °F - 21.2 °F 20% 30.36 in 10.0 mi East 3.5 mph - N/A   Clear
12:36 PM 62.6 °F - 21.2 °F 20% 30.35 in 10.0 mi NNE 4.6 mph - N/A   Clear
12:56 PM 62.6 °F - 21.2 °F 20% 30.35 in 10.0 mi NNE 3.5 mph - N/A   Clear
1:16 PM 62.6 °F - 21.2 °F 20% 30.34 in 5.0 mi NNE 4.6 mph - N/A   Clear
1:36 PM 62.6 °F - 21.2 °F 20% 30.34 in 10.0 mi Calm Calm - N/A   Clear
1:56 PM 64.4 °F - 21.2 °F 19% 30.34 in 10.0 mi NNE 4.6 mph - N/A   Clear
2:16 PM 64.4 °F - 23.0 °F 21% 30.34 in 10.0 mi NNE 6.9 mph - N/A   Clear
2:36 PM 64.4 °F - 24.8 °F 22% 30.33 in 10.0 mi NNE 5.8 mph - N/A   Clear
2:56 PM 64.4 °F - 24.8 °F 22% 30.33 in 10.0 mi NNE 6.9 mph - N/A   Clear
3:16 PM 64.4 °F - 26.6 °F 24% 30.32 in 10.0 mi NNE 8.1 mph - N/A   Clear
3:36 PM 64.4 °F - 26.6 °F 24% 30.32 in 10.0 mi North 6.9 mph - N/A   Clear
3:56 PM 64.4 °F - 26.6 °F 24% 30.31 in 10.0 mi NNE 9.2 mph - N/A   Clear
4:16 PM 64.4 °F - 26.6 °F 24% 30.31 in 10.0 mi NNE 9.2 mph - N/A   Clear
4:36 PM 64.4 °F - 26.6 °F 24% 30.30 in 10.0 mi North 8.1 mph - N/A   Clear
4:56 PM 66.2 °F - 26.6 °F 23% 30.29 in 10.0 mi NNE 8.1 mph - N/A   Clear
5:16 PM 64.4 °F - 24.8 °F 22% 30.29 in 10.0 mi North 3.5 mph - N/A   Clear
5:36 PM 66.2 °F - 26.6 °F 23% 30.28 in 10.0 mi North 4.6 mph - N/A   Clear
5:56 PM 64.4 °F - 26.6 °F 24% 30.28 in 10.0 mi North 3.5 mph - N/A   Partly Cloudy
6:16 PM 64.4 °F - 26.6 °F 24% 30.28 in 10.0 mi North 3.5 mph - N/A   Partly Cloudy
6:36 PM 64.4 °F - 26.6 °F 24% 30.27 in 10.0 mi Calm Calm - N/A   Partly Cloudy
6:56 PM 66.2 °F - 26.6 °F 23% 30.27 in 10.0 mi North 3.5 mph - N/A   Partly Cloudy
7:16 PM 66.2 °F - 26.6 °F 23% 30.26 in 10.0 mi Calm Calm - N/A   Clear
7:36 PM 64.4 °F - 28.4 °F 26% 30.26 in 10.0 mi North 5.8 mph - N/A   Clear
7:56 PM 64.4 °F - 26.6 °F 24% 30.26 in 10.0 mi North 8.1 mph - N/A   Clear
8:16 PM 64.4 °F - 26.6 °F 24% 30.26 in 10.0 mi NNW 3.5 mph - N/A   Scattered Clouds
8:36 PM 62.6 °F - 24.8 °F 24% 30.26 in 10.0 mi North 5.8 mph - N/A   Partly Cloudy
8:56 PM 62.6 °F - 24.8 °F 24% 30.26 in 10.0 mi North 6.9 mph - N/A   Clear
9:16 PM 60.8 °F - 23.0 °F 23% 30.26 in 10.0 mi North 4.6 mph - N/A   Clear
9:36 PM 60.8 °F - 23.0 °F 23% 30.26 in 10.0 mi Calm Calm - N/A   Clear
9:56 PM 57.2 °F - 26.6 °F 31% 30.26 in 10.0 mi Calm Calm - N/A   Clear
10:16 PM 53.6 °F - 28.4 °F 38% 30.26 in 10.0 mi Calm Calm - N/A   Clear
10:36 PM 51.8 °F - 28.4 °F 41% 30.26 in 10.0 mi Calm Calm - N/A   Clear
10:56 PM 51.8 °F - 26.6 °F 38% 30.27 in 10.0 mi WSW 3.5 mph - N/A   Clear
11:16 PM 51.8 °F - 24.8 °F 35% 30.27 in 10.0 mi SSW 5.8 mph - N/A   Clear
11:36 PM 51.8 °F - 24.8 °F 35% 30.27 in 10.0 mi SW 3.5 mph - N/A   Clear
11:56 PM 50.0 °F - 24.8 °F 37% 30.27 in 10.0 mi Calm Calm - N/A   Clear